User: anonymous   Login
Location: Unspecified
(0.0000°N, 0.0000°E)
Time: 18:42:33
(UTC+00:00)
Language:

PHOENIX - Orbit

View from above orbital plane
View from above orbital plane
View from above satellite
View from above satellite

Ground track
Ground track

The orbit data is extracted from the following two-line orbital elements,

1 42706U 98067LP  19077.84735409  .00125744  16885-4  41773-3 0  9993
2 42706  51.6256  20.0782 0003816 138.9791 221.1503 15.90107015105246
Epoch (UTC): 18 March 2019 20:20:11
Eccentricity: 0.0003816
inclination: 51.6256°
perigee height: 299 km
apogee height: 304 km
right ascension of ascending node: 20.0782°
argument of perigee: 138.9791°
revolutions per day: 15.90107015
mean anomaly at epoch: 221.1503°
orbit number at epoch: 10524

The dashed part of the orbit path shows where the satellite is in the earth's shadow,  

DLR